Tillbaka till svenska Fidonet
English   Information   Debug  
FILM   0/18
FNEWS_PUBLISH   4983
FN_SYSOP   42232
FN_SYSOP_OLD1   71952
FTP_FIDO   0/2
FTSC_PUBLIC   0/13976
FUNNY   0/4886
GENEALOGY.EUR   0/71
GET_INFO   105
GOLDED   0/408
HAM   2888/16715
HOLYSMOKE   0/6791
HOT_SITES   0/1
HTMLEDIT   0/71
HUB203   466
HUB_100   264
HUB_400   39
HUMOR   0/29
IC   1658/2851
INTERNET   0/424
INTERUSER   0/3
IP_CONNECT   719
JAMNNTPD   0/233
JAMTLAND   0/47
KATTY_KORNER   0/41
LAN   0/16
LINUX-USER   0/19
LINUXHELP   0/1155
LINUX   0/22386
LINUX_BBS   0/957
mail   18.68
mail_fore_ok   249
MENSA   0/341
MODERATOR   0/102
MONTE   0/992
MOSCOW_OKLAHOMA   0/1245
MUFFIN   0/783
MUSIC   0/321
N203_STAT   938
N203_SYSCHAT   313
NET203   321
NET204   69
NET_DEV   0/10
NORD.ADMIN   0/101
NORD.CHAT   0/2572
NORD.FIDONET   189
NORD.HARDWARE   0/28
NORD.KULTUR   0/114
NORD.PROG   0/32
NORD.SOFTWARE   0/88
NORD.TEKNIK   0/58
NORD   0/453
OCCULT_CHAT   0/93
OS2BBS   0/787
OS2DOSBBS   0/580
OS2HW   0/42
OS2INET   0/37
OS2LAN   0/134
OS2PROG   0/36
OS2REXX   0/113
OS2USER-L   207
OS2   0/4831
OSDEBATE   0/18996
PASCAL   0/490
PERL   0/457
PHP   0/45
POINTS   0/405
POLITICS   0/29554
POL_INC   1319/14731
PSION   103
R20_ADMIN   1133
R20_AMATORRADIO   0/2
R20_BEST_OF_FIDONET   16
R20_CHAT   0/897
R20_DEPP   0/3
R20_DEV   400
R20_ECHO2   1889
R20_ECHOPRES   0/35
R20_ESTAT   0/719
R20_FIDONETPROG...
...RAM.MYPOINT
  0/2
R20_FIDONETPROGRAM   0/22
R20_FIDONET   0/248
R20_FILEFIND   0/24
R20_FILEFOUND   0/22
R20_HIFI   0/3
R20_INFO2   3782
R20_INTERNET   0/12940
R20_INTRESSE   0/60
R20_INTR_KOM   0/99
R20_KANDIDAT.CHAT   42
R20_KANDIDAT   28
R20_KOM_DEV   112
R20_KONTROLL   0/13360
R20_KORSET   0/18
R20_LOKALTRAFIK   0/24
R20_MODERATOR   0/1852
R20_NC   76
R20_NET200   245
R20_NETWORK.OTH...
...ERNETS
  0/13
R20_OPERATIVSYS...
...TEM.LINUX
  0/44
R20_PROGRAMVAROR   0/1
R20_REC2NEC   534
R20_SFOSM   0/341
R20_SF   0/108
R20_SPRAK.ENGLISH   0/1
R20_SQUISH   107
R20_TEST   2
R20_WORST_OF_FIDONET   20
RAR   0/9
RA_MULTI   106
RA_UTIL   0/162
REGCON.EUR   0/2069
REGCON   0/13
SCIENCE   0/1206
SF   0/239
SHAREWARE_SUPPORT   0/5146
SHAREWRE   0/14
SIMPSONS   0/169
STATS_OLD1   0/2539.065
STATS_OLD2   0/2530
STATS_OLD3   0/2395.095
STATS_OLD4   0/1692.25
SURVIVOR   0/495
SYSOPS_CORNER   0/3
SYSOP   0/84
TAGLINES   0/112
TEAMOS2   0/4530
TECH   0/2617
TEST.444   0/105
TRAPDOOR   0/19
TREK   0/755
TUB   0/290
UFO   0/40
UNIX   0/1316
USA_EURLINK   0/102
USR_MODEMS   0/1
VATICAN   0/2740
VIETNAM_VETS   0/14
VIRUS   0/378
VIRUS_INFO   0/201
VISUAL_BASIC   0/473
WHITEHOUSE   0/5187
WIN2000   0/101
WIN32   0/30
WIN95   600/4291
WIN95_OLD1   0/70272
WINDOWS   0/1517
WWB_SYSOP   0/419
WWB_TECH   780/810
ZCC-PUBLIC   0/1
ZEC   4

 
4DOS   0/134
ABORTION   0/7
ALASKA_CHAT   0/506
ALLFIX_FILE   0/1313
ALLFIX_FILE_OLD1   0/7997
ALT_DOS   0/152
AMATEUR_RADIO   0/1039
AMIGASALE   0/14
AMIGA   0/331
AMIGA_INT   0/1
AMIGA_PROG   0/20
AMIGA_SYSOP   0/26
ANIME   0/15
ARGUS   0/924
ASCII_ART   0/340
ASIAN_LINK   0/651
ASTRONOMY   0/417
AUDIO   0/92
AUTOMOBILE_RACING   0/105
BABYLON5   0/17862
BAG   135
BATPOWER   326/361
BBBS.ENGLISH   0/382
BBSLAW   0/109
BBS_ADS   0/5290
BBS_INTERNET   0/507
BIBLE   291/3563
BINKD   0/1119
BINKLEY   0/215
BLUEWAVE   0/2173
CABLE_MODEMS   25/25
CBM   0/46
CDRECORD   0/66
CDROM   0/20
CLASSIC_COMPUTER   0/378
COMICS   0/15
CONSPRCY   0/899
COOKING   42010
COOKING_OLD1   0/24719
COOKING_OLD2   15354/40862
COOKING_OLD3   0/37489
COOKING_OLD4   0/35496
COOKING_OLD5   9370
C_ECHO   0/189
C_PLUSPLUS   0/31
DIRTY_DOZEN   0/201
DOORGAMES   0/2333
DOS_INTERNET   0/196
duplikat   6102
ECHOLIST   0/18295
EC_SUPPORT   0/318
ELECTRONICS   0/359
ELEKTRONIK.GER   1534
ENET.LINGUISTIC   0/13
ENET.POLITICS   0/4
ENET.SOFT   0/11701
ENET.SYSOP   34335
ENET.TALKS   0/32
ENGLISH_TUTOR   0/2000
EVOLUTION   0/1335
FDECHO   0/217
FDN_ANNOUNCE   1916/7068
FIDONEWS   25122
FIDONEWS_OLD1   0/49742
FIDONEWS_OLD2   0/35949
FIDONEWS_OLD3   0/30874
FIDONEWS_OLD4   0/37224
FIDO_SYSOP   12973
FIDO_UTIL   0/180
FILEFIND   0/209
FILEGATE   0/212
Möte HAM, 16715 texter
 lista första sista föregående nästa
Text 2735, 746 rader
Skriven 2009-01-19 00:30:22 av Amsat List (1:323/120.0)
Ärende: [keps]  orb09018.amsa
=============================
[keps]  orb09018.amsa

Return-Path: <keps-bounces@amsat.org>
X-Rcpt: craig.healy@chowda.com
X-UIDL: 1232342473.8608

SB KEPS @ AMSAT  $ORB09018.O
Orbital Elements  09018.OSCAR

HR AMSAT ORBITAL ELEMENTS FOR OSCAR SATELLITES
FROM WA5QGD FORT WORTH,TX January 18, 2009
Send Subscribe/unsubscribe to KEPS at 
http://www.amsat.org/mailman/listinfo/keps
BID: ORB09018.O
TO ALL RADIO AMATEURS BT

Satellite: AO-07
Catalog number: 07530
Epoch time:      09017.65368652
Element set:    0382
Inclination:      101.4437 deg
RA of node:       047.7725 deg
Eccentricity:    0.0011832
Arg of perigee:   202.9754 deg
Mean anomaly:     157.0789 deg
Mean motion:   12.53575118 rev/day
Decay rate:       -2.7e-07 rev/day^2
Epoch rev:           56385
Checksum:              312

Satellite: AO-10
Catalog number: 14129
Epoch time:      09018.21569881
Element set:     610
Inclination:      026.0191 deg
RA of node:       175.7551 deg
Eccentricity:    0.5965168
Arg of perigee:   190.7784 deg
Mean anomaly:     146.4273 deg
Mean motion:   02.05867219 rev/day
Decay rate:       1.72e-06 rev/day^2
Epoch rev:           19253
Checksum:              316

Satellite: UO-11
Catalog number: 14781
Epoch time:      09018.56689864
Element set:     864
Inclination:      098.1287 deg
RA of node:       061.5069 deg
Eccentricity:    0.0010134
Arg of perigee:   099.0987 deg
Mean anomaly:     261.1352 deg
Mean motion:   14.79690995 rev/day
Decay rate:       2.35e-06 rev/day^2
Epoch rev:           33570
Checksum:              341

Satellite: RS-15
Catalog number: 23439
Epoch time:      09017.82495191
Element set:    0211
Inclination:      064.8134 deg
RA of node:       147.9632 deg
Eccentricity:    0.0145967
Arg of perigee:   080.9446 deg
Mean anomaly:     280.7962 deg
Mean motion:   11.27553530 rev/day
Decay rate:       -3.9e-07 rev/day^2
Epoch rev:           57916
Checksum:              326

Satellite: FO-29
Catalog number: 24278
Epoch time:      09018.54557100
Element set:     954
Inclination:      098.5764 deg
RA of node:       272.5148 deg
Eccentricity:    0.0350933
Arg of perigee:   018.1251 deg
Mean anomaly:     343.2043 deg
Mean motion:   13.52941713 rev/day
Decay rate:       -3.7e-07 rev/day^2
Epoch rev:           61351
Checksum:              299

Satellite: SO-33
Catalog number: 25509
Epoch time:      09018.82631018
Element set:     370
Inclination:      031.4282 deg
RA of node:       177.0555 deg
Eccentricity:    0.0354107
Arg of perigee:   112.5748 deg
Mean anomaly:     251.2736 deg
Mean motion:   14.28236037 rev/day
Decay rate:        5.0e-07 rev/day^2
Epoch rev:           53446
Checksum:              282

Satellite: AO-40
Catalog number: 26609
Epoch time:      09018.37611171
Element set:     180
Inclination:      008.5299 deg
RA of node:       037.4226 deg
Eccentricity:    0.7943071
Arg of perigee:   166.7501 deg
Mean anomaly:     245.3606 deg
Mean motion:   01.25583418 rev/day
Decay rate:       -2.8e-07 rev/day^2
Epoch rev:            3774
Checksum:              301

Satellite: VO-52
Catalog number: 28650
Epoch time:      09017.77878280
Element set:    0133
Inclination:      097.7635 deg
RA of node:       084.1881 deg
Eccentricity:    0.0027513
Arg of perigee:   158.5172 deg
Mean anomaly:     201.7175 deg
Mean motion:   14.81544246 rev/day
Decay rate:        2.5e-07 rev/day^2
Epoch rev:           20037
Checksum:              305

Satellite: PO-63
Catalog number: 29712
Epoch time:      09018.78612806
Element set:     159
Inclination:      097.8493 deg
RA of node:       078.6321 deg
Eccentricity:    0.0015031
Arg of perigee:   043.7496 deg
Mean anomaly:     316.4902 deg
Mean motion:   14.80414871 rev/day
Decay rate:       4.94e-06 rev/day^2
Epoch rev:           10936
Checksum:              320

/EX
SB KEPS @ AMSAT  $ORB09018.D
Orbital Elements  09018.MICROS

HR AMSAT ORBITAL ELEMENTS FOR THE MICROSATS
FROM WA5QGD FORT WORTH,TX January 18, 2009
Send Subscribe/unsubscribe to KEPS at 
http://www.amsat.org/mailman/listinfo/keps
BID: ORB09018.D
TO ALL RADIO AMATEURS BT

Satellite: AO-16
Catalog number: 20439
Epoch time:      09017.46962926
Element set:    0514
Inclination:      098.2587 deg
RA of node:       352.8919 deg
Eccentricity:    0.0009993
Arg of perigee:   259.3319 deg
Mean anomaly:     100.6737 deg
Mean motion:   14.31813274 rev/day
Decay rate:       -4.0e-07 rev/day^2
Epoch rev:           99158
Checksum:              340

Satellite: LO-19
Catalog number: 20442
Epoch time:      09018.52955033
Element set:     437
Inclination:      098.2246 deg
RA of node:       001.7254 deg
Eccentricity:    0.0010905
Arg of perigee:   252.3242 deg
Mean anomaly:     107.6758 deg
Mean motion:   14.32050632 rev/day
Decay rate:       -1.3e-07 rev/day^2
Epoch rev:           99189
Checksum:              283

Satellite: AO-27
Catalog number: 22825
Epoch time:      09018.54219305
Element set:     155
Inclination:      098.4179 deg
RA of node:       336.8385 deg
Eccentricity:    0.0008344
Arg of perigee:   351.9282 deg
Mean anomaly:     008.1768 deg
Mean motion:   14.29257267 rev/day
Decay rate:       1.12e-06 rev/day^2
Epoch rev:           79853
Checksum:              330

Satellite: IO-26
Catalog number: 22826
Epoch time:      09018.62866189
Element set:     874
Inclination:      098.4107 deg
RA of node:       337.7362 deg
Eccentricity:    0.0008949
Arg of perigee:   347.3274 deg
Mean anomaly:     012.7682 deg
Mean motion:   14.29507113 rev/day
Decay rate:       -6.0e-08 rev/day^2
Epoch rev:           79864
Checksum:              343

